Location: Burgberg
(50.1428°N, 11.0671°E)
Time: 09:26:05
(UTC+00:00)

Cosmos 2239 Rocket - Pass Details

Date: 26 January 2020
Orbit: 954 x 992 km, 82.9° (Epoch: 27 February)

Event Time Altitude Azimuth Distance (km) Brightness Sun altitude
Rises 05:45:35 0° 349° (NNW) 3,704 7.3 -11.6°
Reaches altitude 10° 05:48:07 10° 347° (NNW) 2,747 6.6 -11.2°
Maximum altitude 05:54:24 74° 264° (W) 1,016 4.5 -10.3°
Drops below altitude 10° 06:00:34 10° 181° (S) 2,701 7.1 -9.3°
Sets 06:03:02 0° 180° (S) 3,638 7.8 -9.0°
